Regional Weather Roundup
Issued by NWS

Home | Current Version | Previous Version | Text Only | Print | Product List | Glossary On
Versions: 1 2 3 4 5 6 7 8 9 10 11 12 13 14 15 16 17 18 19 20 21 22 23 24 25 26 27 28 29 30 31 32 33 34 35 36 37 38 39 40 41 42 43 44 45 46 47 48 49 50
103
ASUS44 KOUN 061810
RWROK

WEATHER ROUNDUP FOR OKLAHOMA
NATIONAL WEATHER SERVICE NORMAN OK
1200 PM CST SAT FEB 06 2016

NOTE: "FAIR" INDICATES FEW OR NO CLOUDS BELOW 12,000 FEET WITH NO
      SIGNIFICANT WEATHER AND/OR OBSTRUCTIONS TO VISIBILITY.

OKZ001>007-009>012-014-015-017-061900-
NORTHWEST OKLAHOMA AND THE PANHANDLE

CITY           SKY/WX    TMP DP  RH WIND       PRES   REMARKS
GAGE           SUNNY     46  22  38 W9        30.36F
6HR MIN TEMP:  19; 6HR MAX TEMP:  46;

GUYMON         SUNNY     48  11  22 SW10      30.33F
ENID/WOODRING  MOSUNNY   46  32  57 N6        30.38F
$$

OKZ016-021>023-033>039-044-045-061900-
SOUTHWEST OKLAHOMA

CITY           SKY/WX    TMP DP  RH WIND       PRES   REMARKS
LAWTON/REGL    SUNNY     48  28  46 N9        30.42S
6HR MIN TEMP:  33; 6HR MAX TEMP:  48;

LAWTON/FT SILL SUNNY     48  30  48 VRB7      30.40S
FREDERICK      SUNNY     48  30  49 N9        30.41S
CLINTON        SUNNY     45  25  45 NW9       30.42F
HOBART         SUNNY     47  28  47 N6        30.42F
ALTUS AFB      SUNNY     49  24  36 NW7       30.42F
$$

OKZ018>020-024>031-061900-
CENTRAL OKLAHOMA

CITY           SKY/WX    TMP DP  RH WIND       PRES   REMARKS
OKLAHOMA CITY  MOSUNNY   46  29  51 NW6       30.39F
6HR MIN TEMP:  34; 6HR MAX TEMP:  46;

OKC/WILEY POST SUNNY     45  30  55 NW8       30.40F
OKC/TINKER AFB SUNNY     45  29  52 VRB6      30.37F
STILLWATER     SUNNY     47  31  53 MISG      30.38F
GUTHRIE        SUNNY     46  30  53 W8        30.39F
$$

OKZ008-013-054>072-061900-
NORTHEAST OKLAHOMA

CITY           SKY/WX    TMP DP  RH WIND       PRES   REMARKS
TULSA          MOSUNNY   51  35  54 W6        30.34F
6HR MIN TEMP:  36; 6HR MAX TEMP:  52;

TULSA/JONES    SUNNY     51  34  52 VRB7      30.36F
PONCA CITY     SUNNY     44  35  70 VRB5      30.38F
BARTLESVILLE   SUNNY     49  28  44 VRB5      30.36F
MUSKOGEE       SUNNY     51  32  48 W7        30.37F
$$

OKZ032-040>043-046>053-073>077-061900-
SOUTH CENTRAL/SOUTHEAST OKLAHOMA

CITY           SKY/WX    TMP DP  RH WIND       PRES   REMARKS
ARDMORE/DWNTWN CLOUDY    48  34  57 CALM      30.41R
MCALESTER      PTSUNNY   53  34  48 VRB3      30.37F
$$





USA.gov is the U.S. government's official web portal to all federal, state and local government web resources and services.